Current weather by "City, St" or "zip code"  
 
Advertise Here

Current Conditions: Sonora, Sonora Municipal Airport, TX

Fair


82.0 F

Last Updated on Sep 16 2021, 9:55 pm CDT
Humidity: 40%
Wind Speed: N 0.0 mph
Barometer 29.97 in
Dewpoint: 55.4 F
Visibility: 10.00 mi
Precip: --
Heat Index: 81 F
Wind Chill: NA
Current conditions at:

Sonora, Sonora Municipal Airport, TX (KSOA)

Lat: 30.58556 Lon: 100.64833

Local Radar Image active severe weather and emergency alerts image image weather storm and storm spotter reports image weather observation monitoring service image
Local
Radar
Active
Alerts
Storm Reports Obs
Monitoring

Sign-up For Email & Text Message Weather Alert Notification Services



Advertise Here

Observation History for Sonora, Sonora Municipal Airport, TX


Time Wind
(mph)
Vis
(mi)
Weather Precip (in) Temperature (F) Relative
Humidity
Wind
Chill
(F)
Heat
Index
(F)
Pressure
Air Dwpt altimeter
(in)
sea level
(mb)
Rmks
9:55 pm CDT N 0.0 10.00 Fair -- 82.0 55.4 40% NA 81 29.97 M
8:55 pm CDT N 0.0 10.00 Fair -- 82.0 57.2 42% NA 82 29.95 M
7:55 pm CDT N 0.0 10.00 Fair -- 88.0 55.4 33% NA 86 29.94 M
6:55 pm CDT N 0.0 10.00 Fair -- 91.0 55.4 30% NA 89 29.93 M
5:55 pm CDT N 0.0 10.00 Fair -- 91.0 57.2 32% NA 90 29.91 M
4:55 pm CDT S 4.6 10.00 Fair -- 91.0 57.2 32% NA 90 29.92 M
3:55 pm CDT N 0.0 10.00 Fair -- 91.0 59.0 34% NA 90 29.94 M
2:55 pm CDT N 0.0 10.00 Fair -- 88.0 59.0 38% NA 87 29.97 M
1:55 pm CDT S 9.2 10.00 Fair -- 88.0 60.8 40% NA 88 29.99 M
12:55 pm CDT 5.8 G 12.7 10.00 Fair -- 84.0 62.6 48% NA 85 30.01 M
11:55 am CDT N 0.0 10.00 Fair -- 84.0 62.6 48% NA 85 30.04 M
10:55 am CDT N 0.0 10.00 Fair -- 81.0 64.4 58% NA 83 30.05 M
9:55 am CDT S 6.9 10.00 Fair -- 77.0 64.4 65% NA NA 30.05 M
8:55 am CDT N 0.0 10.00 Fair -- 72.0 62.6 73% NA NA 30.05 M
7:55 am CDT N 0.0 10.00 Fair -- 63.0 59.0 88% NA NA 30.03 M
6:55 am CDT N 0.0 10.00 Fair -- 64.0 60.8 88% NA NA 30.01 M
5:55 am CDT N 0.0 10.00 Fair -- 70.0 60.8 73% NA NA 30.00 M
4:55 am CDT N 0.0 10.00 Fair -- 70.0 60.8 73% NA NA 30.00 M
3:55 am CDT N 0.0 10.00 Fair -- 72.0 60.8 69% NA NA 30.00 M
2:55 am CDT N 0.0 10.00 Fair -- 73.0 60.8 65% NA NA 30.01 M
1:55 am CDT N 0.0 10.00 Fair -- 75.0 60.8 61% NA NA 30.02 M
12:55 am CDT N 0.0 10.00 Fair -- 75.0 59.0 57% NA NA 30.01 M
11:55 pm CDT NE 3.5 10.00 Fair -- 77.0 59.0 54% NA NA 30.02 M
10:55 pm CDT NE 5.8 10.00 Fair -- 77.0 59.0 54% NA NA 30.02 M

Regional Weather Observation


Ozona Municipal Airport, TX (KOZA)

Fair
81.0 F

San Angelo, Mathis Field, TX (KSJT)

Fair
78.0 F

Reagan County Airport, TX (KE41)

Fair
79.0 F

Junction, Kimble County Airport, TX (KJCT)

Fair
81.0 F

Rocksprings, Edwards County Airport, TX (KECU)

Fair
79.0 F

Brady, Curtis Field Airport, TX (KBBD)

NULL
77.0 F
Advertise Here


Advertise Here